AO-07 1 07530U 74089B 23348.85432451 -.00000042 00000-0 26759-4 0 9995 2 07530 101.9660 336.8673 0012481 78.1454 347.0767 12.53670129246058 UO-11 1 14781U 84021B 23348.47083451 .00001446 00000-0 17246-3 0 9996 2 14781 97.6813 318.7425 0007565 340.7945 19.2984 14.85739728120901 AO-16 1 20439U 90005D 23348.58417453 .00000165 00000-0 77082-4 0 9999 2 20439 98.8954 343.5746 0011471 39.9632 74.5466 14.33232298770992 LO-19 1 20442U 90005G 23348.48425430 .00000164 00000-0 76273-4 0 9996 2 20442 98.8659 329.0640 0012055 15.4415 344.7134 14.33388662771179 AO-27 1 22825U 93061C 23348.61596972 .00000119 00000-0 63438-4 0 9992 2 22825 98.8178 34.2030 0007394 260.0738 99.9609 14.30394582576080 IO-26 1 22826U 93061D 23348.57332012 .00000132 00000-0 67984-4 0 9996 2 22826 98.8123 34.0207 0008011 243.7896 116.2463 14.30765407576602 FO-29 1 24278U 96046B 23348.45687392 .00000003 00000-0 41840-4 0 9996 2 24278 98.5578 302.6586 0349431 309.5763 47.4991 13.53166646349319 NOAA-15 1 25338U 98030A 23348.78497043 .00000166 00000-0 86807-4 0 9999 2 25338 98.5888 14.6138 0011001 142.1265 218.0691 14.26452600331000 GO-32 1 25397U 98043D 23348.88077938 .00000087 00000-0 57795-4 0 9992 2 25397 98.8962 308.1240 0001332 24.2915 335.8326 14.23955604321263 ISS 1 25544U 98067A 23348.80239672 .00011825 00000-0 21186-3 0 9995 2 25544 51.6405 153.9062 0002239 25.0767 50.2515 15.50399815429809 NO-44 1 26931U 01043C 23348.66326397 .00000192 00000-0 10422-3 0 9995 2 26931 67.0514 90.7727 0005600 260.3931 99.6538 14.31066892159569 SO-50 1 27607U 02058C 23348.59757059 .00001318 00000-0 19823-3 0 9993 2 27607 64.5552 71.5566 0047681 183.5798 176.4972 14.78056168129091 CO-55 1 27844U 03031E 23348.54901349 .00000336 00000-0 16842-3 0 9993 2 27844 98.6786 353.1990 0009155 328.8258 31.2376 14.22996939 61415 CO-57 1 27848U 03031J 23347.99083795 .00000224 00000-0 12013-3 0 9993 2 27848 98.6817 352.9898 0009425 346.9951 13.0982 14.22476588 61064 RS-22 1 27939U 03042A 23348.88107461 .00001072 00000-0 19105-3 0 9993 2 27939 98.2655 137.5642 0011198 287.4541 195.6421 14.69081428 81062 NOAA-18 1 28654U 05018A 23348.84488217 .00000247 00000-0 15621-3 0 9992 2 28654 98.8944 62.2265 0013668 225.5426 134.4629 14.13077279957081 CO-58 1 28895U 05043F 23348.32154775 .00001564 00000-0 29041-3 0 9993 2 28895 98.1766 119.3757 0015407 221.2383 138.7658 14.66544633967206 CO-65 1 32785U 08021C 23348.53301172 .00003696 00000-0 35005-3 0 9998 2 32785 97.7321 311.0867 0010132 217.6388 142.4124 14.94185124847730 AAUSAT2 1 32788U 08021F 23348.85309887 .00009467 00000-0 60100-3 0 9993 2 32788 97.5794 325.0457 0009447 90.6872 269.5439 15.09055299850403 CO-66 1 32791U 08021J 23348.88692228 .00004849 00000-0 39742-3 0 9991 2 32791 97.6831 316.9106 0009968 152.8757 207.2989 14.99691926848790 RS-30 1 32953U 08025A 23348.80477592 .00000023 00000-0 92859-4 0 9991 2 32953 82.5030 204.7603 0019450 148.3079 211.9176 12.43133218706092 PRISM 1 33493U 09002B 23348.58424542 .00009473 00000-0 56400-3 0 9998 2 33493 98.2307 16.2776 0014845 154.5337 205.6626 15.11372797810944 NOAA-19 1 33591U 09005A 23348.84178486 .00000213 00000-0 13873-3 0 9992 2 33591 99.0762 37.4495 0014794 94.8625 265.4236 14.12885661765454 SRMSAT 1 37841U 11058D 23346.87217667 .00000428 00000-0 89499-4 0 9997 2 37841 19.9704 209.6026 0011853 195.3259 277.6327 14.10999144628071 HRBE 1 37855U 11061F 23348.15983554 .00038416 00000-0 84006-3 0 9990 2 37855 101.6955 53.4670 0092077 204.6154 155.0668 15.39613620664125 RS-40 1 38735U 12041C 23348.50935489 .00000026 00000-0 12069-3 0 9996 2 38735 82.4757 285.6429 0016257 264.9238 94.9986 12.42598510516118 ZACUBE-1 1 39417U 13066B 23348.85286555 .00003445 00000-0 38259-3 0 9990 2 39417 97.7117 304.6274 0054728 53.5238 307.1003 14.86755029544022 Delfi-N3xt 1 39428U 13066N 23348.78526760 .00005706 00000-0 78192-3 0 9991 2 39428 97.8385 267.4866 0105947 329.1199 30.3806 14.74990650538918 GOMX-1 1 39430U 13066Q 23348.62877850 .00001377 00000-0 24028-3 0 9995 2 39430 97.7563 229.1215 0144113 121.5915 239.9448 14.62872479535909 LO-74 1 39440U 13066AA 23348.59437856 .00002423 00000-0 30462-3 0 9992 2 39440 97.7949 291.8323 0073297 158.5378 201.8935 14.81118362540844 AO-73 1 39444U 13066AE 23348.85366923 .00004793 00000-0 50339-3 0 9998 2 39444 97.6975 307.3826 0052432 37.4515 323.0337 14.88920513543092 SPROUT 1 39770U 14029E 23348.86928714 .00024777 00000-0 13606-2 0 9992 2 39770 98.0024 123.1003 0004316 67.0538 293.1147 15.14111030519373 DTUSAT-2 1 40030U 14033W 23348.83842581 .00004008 00000-0 36872-3 0 9998 2 40030 97.9876 292.1182 0011951 55.7462 304.4888 14.95303767515489 EO-80 1 40032U 14033Y 23348.81243028 .00004359 00000-0 40010-3 0 9997 2 40032 97.9883 292.1063 0012219 57.7756 302.4646 14.95338894515460 HODOYOSHI-1 1 40299U 14070B 23348.80427230 .00011865 00000-0 30654-3 0 9994 2 40299 97.1701 47.1521 0009055 359.1071 1.0158 15.39229303506537 GRIFEX 1 40379U 15003D 23348.48949911 .00122769 00000-0 10632-2 0 9998 2 40379 99.0843 332.1851 0046093 5.4449 354.7297 15.67348927491327 XW-2C 1 40906U 15049H 23348.70176372 .00013208 00000-0 42351-3 0 9993 2 40906 97.4896 357.1382 0008144 239.9107 120.1328 15.32441664455985 XW-2D 1 40907U 15049J 23348.74360716 .00016715 00000-0 48021-3 0 9991 2 40907 97.4863 358.3656 0007006 226.3638 133.7025 15.35880035456125 LILACSAT-2 1 40908U 15049K 23348.74609782 .00005433 00000-0 23712-3 0 9996 2 40908 97.5267 351.6644 0011359 282.9877 77.0091 15.22513561455245 XW-2E 1 40909U 15049L 23348.75330530 .00056067 00000-0 75632-3 0 9997 2 40909 97.4355 7.5630 0005608 156.8205 203.3304 15.57612859457048 XW-2F 1 40910U 15049M 23348.71436450 .00055087 00000-0 77372-3 0 9997 2 40910 97.4456 6.7781 0005994 162.6885 197.4575 15.56525221456763 XW-2B 1 40911U 15049N 23348.70726099 .00016940 00000-0 49226-3 0 9990 2 40911 97.4840 358.6349 0007091 228.9480 131.1152 15.35517932455994 DCBB 1 40912U 15049P 23347.83708480 .00175049 00000-0 11051-2 0 9998 2 40912 97.3897 12.0684 0006327 116.8866 243.3047 15.76097331457535 IO-86 1 40931U 15052B 23348.33839674 .00001104 00000-0 62661-4 0 9994 2 40931 5.9991 240.3040 0013410 325.1836 34.7415 14.77518553443924 ChubuSat-2 1 41338U 16012B 23348.56110615 .00003812 00000-0 25007-3 0 9995 2 41338 31.0001 143.1446 0011721 176.5361 183.5358 15.05830062429570 ChubuSat-3 1 41339U 16012C 23348.64867320 .00003421 00000-0 22575-3 0 9990 2 41339 31.0068 140.1708 0011595 183.9593 176.0953 15.05514023429574 Horyu-4 1 41340U 16012D 23347.72615679 .00007468 00000-0 42587-3 0 9998 2 41340 31.0030 105.7718 0010302 243.8814 116.0764 15.11351398429878 e-st@r-II 1 41459U 16025D 23348.74335112 .00041909 00000-0 74449-3 0 9997 2 41459 98.1569 210.1855 0074201 182.5908 177.4966 15.46988946420637 Lapan A3 1 41603U 16040E 23348.80441744 .00002693 00000-0 11490-3 0 9995 2 41603 97.1531 6.0273 0013664 44.5128 315.7205 15.23646883414989 Pratham 1 41783U 16059A 23348.57769295 .00000661 00000-0 13298-3 0 9993 2 41783 97.8524 11.5524 0031472 248.3179 111.4673 14.64363597385376 CAS-2T 1 41847U 16066G 23348.19882815 .00000798 00000-0 12654-3 0 9990 2 41847 98.4852 55.7867 0357386 17.1374 344.1524 14.40437404372719 CAS-4B 1 42759U 17034B 23348.84907792 .00008111 00000-0 36167-3 0 9995 2 42759 43.0125 188.4431 0011884 207.4746 152.5476 15.21669820359114 CAS-4A 1 42761U 17034D 23348.79698091 .00007336 00000-0 32774-3 0 9999 2 42761 43.0109 187.2194 0012327 207.1506 152.8701 15.21712631359119 NIUSat 1 42766U 17036B 23348.59806571 .00047988 00000-0 70673-3 0 9995 2 42766 97.1312 17.3057 0007114 143.6514 216.5226 15.55256289360483 Aalto 1 1 42775U 17036L 23348.54652030 .00022786 00000-0 48140-3 0 9992 2 42775 97.1314 14.2641 0008210 156.2581 203.9049 15.45146559360279 URSA MAIOR 1 42776U 17036M 23348.60858250 .00032153 00000-0 58740-3 0 9998 2 42776 97.1314 16.4174 0007859 148.4227 211.7498 15.49302827360409 Max Valier Sat 1 42778U 17036P 23348.83454819 .00032327 00000-0 55639-3 0 9995 2 42778 97.1308 20.5274 0006821 147.6417 212.5256 15.51005376360606 Pegasus 1 42784U 17036V 23348.60668006 .00302449 00000-0 12320-2 0 9996 2 42784 97.1127 26.8704 0003459 123.3064 236.8538 15.85400120361103 VENTA 1 1 42791U 17036AC 23348.62750574 .00323621 00000-0 12041-2 0 9993 2 42791 97.1082 28.2155 0002825 122.8689 237.2856 15.87231410361171 D-SAT 1 42794U 17036AF 23348.52025961 .00005390 00000-0 40639-3 0 9995 2 42794 97.4809 332.5753 0114561 55.0832 306.1091 14.97702745352909 TechnoSat 1 42829U 17042E 23348.53400302 .00002625 00000-0 24545-3 0 9994 2 42829 97.3783 175.2767 0012635 346.0569 14.0302 14.94861841349427 AO-91 1 43017U 17073E 23348.59039520 .00005097 00000-0 34041-3 0 9992 2 43017 97.6031 225.8936 0222488 191.6815 167.9194 14.89376181328003 AO-92 1 43137U 18004AC 23348.74016391 .00121492 00000-0 82549-3 0 9992 2 43137 97.3065 72.4630 0002819 208.4465 151.6647 15.74570916330383 TianYi 2 1 43155U 18008A 23348.83471699 .00023493 00000-0 67718-3 0 9995 2 43155 97.2716 37.8772 0010960 33.1341 327.0587 15.35665463326273 Zhou Enlai 1 43156U 18008B 23348.84396196 .00030115 00000-0 81338-3 0 9998 2 43156 97.2761 38.4168 0008825 34.8529 325.3292 15.37665524326222 TianYi 6 1 43158U 18008D 23348.65548758 .00018505 00000-0 61531-3 0 9994 2 43158 97.2813 34.0259 0009999 41.5801 318.6200 15.31175208325958 S-Net D 1 43186U 18014G 23348.68069696 .00004249 00000-0 32672-3 0 9998 2 43186 97.6041 248.9444 0010747 278.2519 81.7487 15.02194031320634 S-Net B 1 43187U 18014H 23348.61564525 .00004276 00000-0 32877-3 0 9990 2 43187 97.6041 248.8158 0011563 274.3281 85.6623 15.02186198320625 S-Net A 1 43188U 18014J 23348.61537861 .00004291 00000-0 32988-3 0 9994 2 43188 97.6048 248.9145 0011457 275.0463 84.9454 15.02193074320627 S-Net C 1 43189U 18014K 23348.68469252 .00004217 00000-0 32418-3 0 9996 2 43189 97.6055 248.8922 0013144 267.3719 92.6001 15.02186701319183 CubeBel-1 1 43666U 18083E 23348.85388116 .00072742 00000-0 89588-3 0 9998 2 43666 97.3540 23.5593 0005739 160.5124 199.6353 15.59969166285126 Changshagaoxin 1 43669U 18083H 23348.84417902 .00044524 00000-0 80459-3 0 9991 2 43669 97.3577 16.6278 0004753 164.0976 196.0425 15.49570740284766 Ten-Koh 1 43677U 18084G 23348.35872888 .00003071 00000-0 29102-3 0 9995 2 43677 98.0369 132.0057 0013286 273.0843 86.8856 14.94320757278953 PO-101 1 43678U 18084H 23348.77877696 .00001531 00000-0 14835-3 0 9990 2 43678 98.0462 136.7881 0008074 287.3350 72.6986 14.94246831279222 QO-100 1 43700U 18090A 23348.52827014 .00000165 00000-0 00000-0 0 9993 2 43700 0.0151 318.7635 0001815 348.5115 351.7003 1.00273212 18497 MinXSS-2 1 43758U 18099A 23348.74408251 .00005380 00000-0 38561-3 0 9997 2 43758 97.5809 49.3304 0017510 228.7487 131.2231 15.04662619274862 AO-95 1 43770U 18099N 23348.14981158 .00003962 00000-0 30303-3 0 9997 2 43770 97.5762 45.1849 0012130 275.0669 84.9172 15.02421078274602 RANGE-B 1 43772U 18099Q 23348.63947620 .00006532 00000-0 46469-3 0 9995 2 43772 97.5528 48.7476 0005904 172.8992 187.2319 15.04969438274770 RANGE-A 1 43773U 18099R 23348.73666247 .00002472 00000-0 20215-3 0 9990 2 43773 97.5390 42.8916 0014257 233.5769 126.4141 15.00172732274610 MOVE-II 1 43780U 18099Y 23348.70632607 .00009931 00000-0 63837-3 0 9992 2 43780 97.5497 49.2522 0006551 254.4387 105.6119 15.08600868274906 SNUSat 2 1 43782U 18099AA 23348.14834548 .00003287 00000-0 25530-3 0 9996 2 43782 97.5450 45.2917 0014724 202.2661 157.7927 15.01925227274624 SnugLite 1 43784U 18099AC 23348.15417710 .00004248 00000-0 32247-3 0 9998 2 43784 97.5260 44.7956 0003869 196.0056 164.1048 15.02715884274676 ITASat 1 1 43786U 18099AE 23348.75476137 .00003576 00000-0 28009-3 0 9998 2 43786 97.5443 46.3721 0016722 250.2529 109.6892 15.01522485274728 EAGLET 1 1 43790U 18099AJ 23348.13454516 .00002457 00000-0 19791-3 0 9997 2 43790 97.5605 46.1734 0016446 242.1368 117.8191 15.00737402274357 ESEO 1 43792U 18099AL 23348.10587404 .00001847 00000-0 15899-3 0 9996 2 43792 97.5462 43.9630 0011197 232.8327 127.1874 14.98520860274322 CSIM 1 43793U 18099AM 23348.76120889 .00008421 00000-0 53856-3 0 9999 2 43793 97.5564 50.8546 0013570 226.4041 133.6063 15.08780218274765 JO-97 1 43803U 18099AX 23348.11127032 .00005411 00000-0 40001-3 0 9991 2 43803 97.5498 46.2013 0010224 212.6428 147.4167 15.03573844274702 Suomi 100 1 43804U 18099AY 23348.68716887 .00004568 00000-0 34206-3 0 9998 2 43804 97.5570 46.5632 0016015 206.9544 153.0851 15.03107832274784 CHOMPTT 1 43855U 18104G 23348.83834295 .00043821 00000-0 64332-3 0 9990 2 43855 85.0234 42.0255 0006934 7.5361 352.6002 15.55301371278490 ISAT 1 43879U 18111D 23348.27664283 .00007601 00000-0 52871-3 0 9991 2 43879 97.6331 250.4334 0012276 275.4533 84.5293 15.05719355271406 UWE-4 1 43880U 18111E 23348.24418256 .00005944 00000-0 41940-3 0 9990 2 43880 97.6232 250.8215 0015981 285.0649 74.8809 15.05234930271429 Sparrow 1 43881U 18111F 23348.70292122 .00006757 00000-0 46567-3 0 9997 2 43881 97.6385 252.4438 0010009 322.4813 37.5715 15.06124382269529 Lume 1 1 43908U 18111AJ 23348.60612521 .00108323 00000-0 82195-3 0 9994 2 43908 97.1034 231.3221 0003028 247.4163 112.6781 15.72010188277447 AISTechSat 3 1 44103U 19018AB 23348.84377468 .00046406 00000-0 62380-3 0 9990 2 44103 97.2233 47.5365 0005185 341.6555 18.4513 15.57751435262452 AISat 1 1 44104U 19018AC 23348.55299935 .00034451 00000-0 43848-3 0 9996 2 44104 97.3712 84.5228 0029479 316.4453 43.4476 15.58746299263690 Prox-1 1 44339U 19036A 23348.37086754 .00006641 00000-0 12397-2 0 9993 2 44339 24.0022 336.5030 0009854 98.1790 261.9821 14.62501754237977 SONATE 1 44400U 19038Q 23348.51936737 .00011250 00000-0 43394-3 0 9999 2 44400 97.7022 330.6907 0020513 45.8464 314.4456 15.26285837245691 BeeSat 9 1 44412U 19038AC 23348.88746965 .00037587 00000-0 82518-3 0 9996 2 44412 97.6861 337.2371 0013815 32.0281 328.1803 15.43850336245895 JAISAT-1 1 44419U 19038F 23348.48943248 .00043113 00000-0 94661-3 0 9996 2 44419 97.6833 337.9370 0013269 30.5977 329.6041 15.43823998246216 Taurus 1 1 44530U 19059C 23348.87725299 .00004004 00000-0 99634-3 0 9991 2 44530 98.5649 99.8308 0012248 257.1337 102.8489 14.52243827224841 Duchifat 3 1 44854U 19089C 23348.56353325 .00008472 00000-0 51124-3 0 9991 2 44854 36.9603 90.2466 0007368 7.6608 352.4249 15.10282545220075 OPS-SAT 1 44878U 19092F 23348.51522327 .00041741 00000-0 82182-3 0 9990 2 44878 97.4600 180.9822 0006755 200.5719 159.5259 15.47103990221545 TO-108 1 44881U 19093C 23348.81130086 .00000923 00000-0 11968-3 0 9996 2 44881 97.8480 64.1061 0014010 203.9594 156.0970 14.83070810215568 FloripaSat 1 1 44885U 19093G 23348.72906867 .00003398 00000-0 37862-3 0 9998 2 44885 97.8571 67.9928 0012825 202.2789 157.7871 14.87689577215777 RS-44 1 44909U 19096E 23348.19711784 .00000045 00000-0 12880-3 0 9990 2 44909 82.5219 228.3259 0218218 125.9330 236.2235 12.79724479185189 BY70-2 1 45857U 20042B 23348.85565196 .00025755 00000-0 19996-2 0 9992 2 45857 97.9218 70.5252 0006480 123.7979 236.3862 15.01302637186535 UPMSat 2 1 46276U 20061E 23348.75283735 .00008632 00000-0 32187-3 0 9997 2 46276 97.3253 52.8245 0002582 77.9781 282.1748 15.27663869181812 AmicalSat 1 46287U 20061R 23348.12105873 .00013707 00000-0 52978-3 0 9995 2 46287 97.3807 51.7283 0003059 135.9891 224.1591 15.26348049181097 SALSAT 1 46495U 20068K 23348.38155726 .00004034 00000-0 25179-3 0 9999 2 46495 97.7938 298.7742 0013179 222.4040 137.6171 15.10027626176243 CAPE 3 1 47309U 21002A 23348.54672470 .00100788 00000-0 94571-3 0 9996 2 47309 60.6679 74.3151 0025633 39.7814 320.5166 15.66152028162256 AO-109 1 47311U 21002C 23348.60829035 .00044751 00000-0 64708-3 0 9993 2 47311 60.6762 77.9717 0026054 42.1960 318.1141 15.55232851162175 ExoCube 2 1 47319U 21002L 23348.60474631 .00050092 00000-0 76646-3 0 9998 2 47319 60.6737 81.2416 0026766 42.2952 318.0206 15.53622376162085 UVSQ-SAT 1 47438U 21006AB 23348.14193251 .00017139 00000-0 55146-3 0 9996 2 47438 97.3592 43.2982 0008504 155.5986 204.5660 15.32265059160128 YUSAT 1 1 47439U 21006AC 23348.70837018 .00026264 00000-0 70505-3 0 9990 2 47439 97.3594 45.6465 0007468 147.3506 212.8202 15.37895106160321 SOMP 2b 1 47445U 21006AJ 23348.10695729 .00016420 00000-0 54877-3 0 9999 2 47445 97.3558 42.1863 0008642 161.4662 198.6896 15.31049842160071 IDEASSat 1 47458U 21006AX 23348.71262286 .00015186 00000-0 52658-3 0 9991 2 47458 97.3656 43.5675 0008115 158.9234 201.2343 15.29874721160135 CubeSX-Sirius-HSE 1 47951U 21022V 23348.85621671 .00010247 00000-0 50238-3 0 9994 2 47951 97.4789 243.5905 0018990 69.0400 291.2863 15.18160926150394 CubeSX-HSE 1 47952U 21022W 23348.75507270 .00009514 00000-0 46565-3 0 9995 2 47952 97.4787 243.5556 0018901 68.9422 291.3831 15.18240441150385 KSU-Cubesat 1 47954U 21022Y 23348.67261144 .00012254 00000-0 57345-3 0 9998 2 47954 97.4797 244.1740 0018094 67.0508 293.2634 15.19743888150137 GRBAlpha 1 47959U 21022AD 23348.79731456 .00010610 00000-0 51748-3 0 9999 2 47959 97.4791 243.7119 0018689 68.8826 291.4404 15.18335834149212 Orbicraft-Zorkiy 1 47960U 21022AE 23348.84671298 .00011524 00000-0 54306-3 0 9992 2 47960 97.4831 244.5098 0018299 67.1341 293.1823 15.19515759149946 STECCO 1 47962U 21022AG 23348.75090468 .00028372 00000-0 95270-3 0 9992 2 47962 97.4802 248.9319 0012792 50.7950 309.4424 15.30741134149552 MO-110 1 47964U 21022AJ 23348.28081482 .00033895 00000-0 10853-2 0 9997 2 47964 97.4822 249.3892 0014181 47.6211 312.6229 15.32217747149533 FEES 1 48082U 21022AL 23348.29091896 .00142073 00000-0 20743-2 0 9998 2 48082 97.4761 253.8384 0009838 47.7494 312.4593 15.55112034149530 TUBIN 1 48900U 21059X 23348.83489907 .00008134 00000-0 34137-3 0 9993 2 48900 97.6222 124.3875 0008388 21.0520 339.1060 15.23712209136642 IT-SPINS 1 49017U 21013G 23348.01730037 .00093568 00000-0 89565-3 0 9996 2 49017 51.5841 265.0735 0003132 158.7412 201.3714 15.65904623137620 LEDSAT 1 49069U 21073D 23348.70411942 .00008281 00000-0 40363-3 0 9997 2 49069 97.4633 56.8105 0021179 211.1333 148.8648 15.18387666128259 CUTE 1 49263U 21088D 23348.13080485 .00008748 00000-0 49688-3 0 9997 2 49263 97.5241 51.1197 0016270 9.5426 350.6110 15.13041262121454 TeikyoSat 4 1 49396U 21102B 23348.59050944 .00001332 00000-0 10271-3 0 9996 2 49396 97.4900 34.8533 0013622 178.3698 181.7574 15.03180709114861 Z-Sat 1 49399U 21102E 23348.79713763 .00002736 00000-0 18892-3 0 9992 2 49399 97.4607 36.2797 0021555 168.4391 191.7336 15.06398805115061 KOSEN 1 1 49402U 21102H 23348.69858548 .00004490 00000-0 28903-3 0 9990 2 49402 97.4529 37.0670 0020486 156.3295 203.8880 15.08684496115154 HO-113 1 50466U 21131B 23348.80751941 .00000582 00000-0 20205-3 0 9991 2 50466 98.5420 69.7263 0003474 332.9819 27.1187 14.39240165103338 Tevel-3 1 50988U 22002E 23348.84908040 .00027074 00000-0 77186-3 0 9991 2 50988 97.4106 55.5846 0005211 321.2541 38.8328 15.36030624106389 Tevel-8 1 50989U 22002F 23348.74639215 .00027133 00000-0 77586-3 0 9996 2 50989 97.4124 55.5595 0005149 319.8747 40.2116 15.35936198106362 Tevel-5 1 50998U 22002Q 23348.73467579 .00030473 00000-0 82909-3 0 9993 2 50998 97.4103 56.1305 0005989 311.4372 48.6358 15.37459720106418 Tevel-6 1 50999U 22002R 23348.73394760 .00030804 00000-0 83850-3 0 9999 2 50999 97.4101 56.1189 0005984 311.1214 48.9513 15.37442103106417 Tevel-1 1 51013U 22002AF 23348.73544353 .00028327 00000-0 80943-3 0 9999 2 51013 97.4100 55.3779 0005062 320.3954 39.6919 15.35950540106368 NO-116 1 51031U 22002AZ 23348.19497302 .00137361 00000-0 15671-2 0 9994 2 51031 97.4190 61.8232 0005641 287.9725 72.0917 15.61748826106663 IRIS-A 1 51044U 22002BN 23348.73379114 .00010110 00000-0 41826-3 0 9992 2 51044 97.4129 51.7472 0006544 338.2522 21.8436 15.24133144106119 Tevel-7 1 51062U 22002CG 23348.74387167 .00027698 00000-0 79072-3 0 9993 2 51062 97.4119 55.5272 0005164 319.6205 40.4655 15.35983281106360 Tevel-4 1 51063U 22002CH 23348.82430716 .00026213 00000-0 75135-3 0 9990 2 51063 97.4116 55.5649 0005107 319.0927 40.9933 15.35869074106376 Tevel-2 1 51069U 22002CP 23348.84980904 .00027228 00000-0 77578-3 0 9997 2 51069 97.4105 55.5527 0005162 321.0356 39.0515 15.36048054106389 DELFI-PQ 1 51074U 22002CU 23348.77260771 .00310114 00000-0 17802-2 0 9990 2 51074 97.4291 66.8811 0005880 295.7210 64.3449 15.77901161106968 SO-115 1 51080U 22002DA 23346.03093456 .00030237 00000-0 69996-3 0 9995 2 51080 97.4404 58.4664 0007345 349.0961 11.0126 15.42383743106163 SO-114 1 51081U 22002DB 23347.15220901 .00034760 00000-0 78794-3 0 9998 2 51081 97.4401 59.6422 0007391 344.9376 15.1650 15.42983803106341 OreSat0 1 52017U 22026K 23348.55822121 .00021264 00000-0 64620-3 0 9999 2 52017 97.5071 352.5608 0018287 158.4679 201.7337 15.33913101 97108 Planetum 1 1 52738U 22057G 23348.31397506 .00018581 00000-0 68947-3 0 9995 2 52738 97.5529 105.2401 0006821 84.4121 275.7896 15.27621874 86083 Foresail-1 1 52766U 22057AL 23348.31729914 .00011126 00000-0 45692-3 0 9998 2 52766 97.5665 105.9190 0011834 65.5765 294.6705 15.24316957 86079 SNUGLITE 2 1 52899U 22065F 23348.37574154 .00001049 00000-0 22830-3 0 9996 2 52899 98.0926 128.5649 0008066 22.1864 337.9684 14.59958403 77144 IO-117 1 53106U 22080B 23345.95188538 -.00000003 00000-0 00000-0 0 9995 2 53106 70.1434 257.9279 0008205 147.5077 212.6089 6.42557310 33178 SelfieSat 1 53951U 22057BC 23348.29162314 .00027781 00000-0 90323-3 0 9992 2 53951 97.5571 106.7069 0007500 72.8436 287.3625 15.31840264 86157 FO-118 1 54684U 22167C 23348.85224712 .00012374 00000-0 57548-3 0 9995 2 54684 97.5836 126.1783 0012717 72.7884 287.4742 15.20034298 56064 SSS-2B 1 56184U 23054G 23348.81591473 .00014680 00000-0 51829-3 0 9993 2 56184 97.3899 241.7999 0011012 110.4156 249.8268 15.29268885 37716 CIRBE 1 56188U 23054L 23348.25059641 .00028794 00000-0 92421-3 0 9995 2 56188 97.3851 241.4850 0010245 101.8048 258.4344 15.32220710 37655 INSPIRE-Sat 7 1 56211U 23054AK 23348.22969514 .00025125 00000-0 76249-3 0 9993 2 56211 97.3874 242.1956 0014144 89.5627 270.7236 15.33988917 37691 RoseyCubesat 1 1 56212U 23054AL 23348.81414726 .00023507 00000-0 69200-3 0 9990 2 56212 97.3875 242.9579 0014375 86.8479 273.4408 15.34960900 37798 SO-120 1 56992U 23084BU 23346.12819970 .00010024 00000-0 50014-3 0 9993 2 56992 97.5203 100.3575 0015517 325.3713 34.6509 15.17609146 27571 MRC-100 1 56993U 23084BV 23348.28466440 .00016488 00000-0 80704-3 0 9992 2 56993 97.5211 102.5585 0015263 316.8139 43.1897 15.18158985 27915 UmKA 1 (RS40S) 1 57172U 23091G 23348.85198706 .00002599 00000-0 18659-3 0 9998 2 57172 97.6406 37.8458 0018555 36.8680 323.3818 15.05061431 25591 CubeBel-2 (EU11S) 1 57175U 23091K 23348.83182813 .00005170 00000-0 36810-3 0 9998 2 57175 97.6399 37.7087 0016982 47.6145 312.6515 15.04944085 25588 VERONIKA 1 58261U 23174F 23348.74723838 .00009589 00000-0 52885-3 0 9993 2 58261 97.4840 61.1120 0014109 164.2982 195.8690 15.14094265 5598 HADES-D 1 58294U 23174AQ 23348.19898923 .00008373 00000-0 45136-3 0 9997 2 58294 97.4814 60.6091 0011208 152.2764 207.9068 15.14979123 5519 KAFASAT 1 58317U 23174BP 23348.71435187 .00011336 00000-0 59695-3 0 9998 2 58317 97.4786 61.1308 0013415 144.0857 216.1280 15.15700159 5592 ENSO 1 58470U 23185J 23348.86929540 .00009188 00000-0 46673-3 0 9991 2 58470 97.4541 53.2134 0013806 202.6386 157.4240 15.17024072 1990 EIRSAT-1 1 58472U 23185L 23348.86971621 .00010273 00000-0 52201-3 0 9991 2 58472 97.4534 53.2100 0013570 203.8764 156.1842 15.16985487 1997 /EX